Stations météo

Publicité
Le Luc, France (7675): Température de l'air & dewpoint: 19.09.2020 04:00:00 - 25.09.2020 04:00:00 (CEST)Le Luc, France (7675): Température de l'air 5cm: 19.09.2020 04:00:00 - 25.09.2020 04:00:00 (CEST)Le Luc, France (7675): Vitesse du vent & gusts: 19.09.2020 04:00:00 - 25.09.2020 04:00:00 (CEST)Le Luc, France (7675): Direction du vent: 19.09.2020 04:00:00 - 25.09.2020 04:00:00 (CEST)Le Luc, France (7675): reduced air pressure: 19.09.2020 04:00:00 - 25.09.2020 04:00:00 (CEST)Le Luc, France (7675): visibility: 19.09.2020 04:00:00 - 25.09.2020 04:00:00 (CEST)Le Luc, France (7675): Ensoleillement: 19.09.2020 04:00:00 - 25.09.2020 04:00:00 (CEST)Le Luc, France (7675): Quantités de précipitations: 19.09.2020 04:00:00 - 25.09.2020 04:00:00 (CEST)
Date & Time tt [°C] td [°C] tt 5cm [°C] ff [km/h] ff [knt] fx [km/h] fx [knt] dd ppp [hPa] vv [km] sd [min] rr [mm]
25.09.2020 04:00:00 19,3 12,3 18,0 9 5 24 13 WSW 1003,8 20 0 0,0
25.09.2020 03:00:00 19,2 14,9 18,3 6 3 26 14 SW 1004,4 20 0 0,0
25.09.2020 02:00:00 20,2 15,4 19,3 8 4 35 19 WSW 1004,9 20 0 0,0
25.09.2020 01:00:00 20,4 16,0 18,6 11 6 23 12 W 1005,1 20 0 0,0
25.09.2020 00:00:00 20,3 16,5 19,1 9 5 19 10 W 1005,9 20 0 0,0
24.09.2020 23:00:00 21,3 16,9 20,2 11 6 23 12 W 1006,1 20 0 0,0
24.09.2020 22:00:00 21,4 18,4 20,6 9 5 14 8 NW 1006,8 20 0 0,0
24.09.2020 21:00:00 22,2 18,8 21,4 11 6 18 10 WSW 1006,6 20 0 0,0
24.09.2020 20:00:00 22,7 18,7 21,7 5 3 21 11 WSW 1006,5 20 0 0,0
24.09.2020 19:00:00 23,7 18,3 23,3 11 6 26 14 SW 1007,1 20 0 0,0
24.09.2020 18:00:00 24,8 18,5 24,8 13 7 31 17 SW 1007,1 20 15 0,0
24.09.2020 17:00:00 26,2 18,3 28,1 18 10 31 17 WSW 1007,3 20 48 0,0
24.09.2020 16:00:00 26,6 20,0 23,1 11 6 29 16 SW 1007,7 20 34 0,4
24.09.2020 15:00:00 27,3 17,2 30,5 13 7 27 15 SW 1008,2 20 45 0,0
24.09.2020 14:00:00 27,3 18,6 30,7 8 4 21 11 S 1009,1 20 40 0,0
24.09.2020 13:00:00 27,4 17,0 31,3 7 4 22 12 SSE 1009,5 20 50 0,0
24.09.2020 12:00:00 27,5 14,8 31,7 4 2 13 7 ESE 1010,4 19 57 0,0
24.09.2020 11:00:00 25,0 15,9 28,5 3 2 10 5 SSW 1010,9 20 60 0,0
24.09.2020 10:00:00 21,9 16,0 23,4 3 1 7 4 ESE 1010,7 20 53 0,0
24.09.2020 09:00:00 19,1 15,0 17,6 6 4 12 6 ENE 1010,3 20 55 0,0
24.09.2020 08:00:00 17,4 14,3 16,3 8 5 17 9 W 1010,2 20 6 0,0
24.09.2020 07:00:00 18,0 14,3 17,0 13 7 22 12 W 1010,1 20 0 0,0
24.09.2020 06:00:00 18,1 14,4 17,2 14 8 21 11 SW 1010,6 20 0 0,0
24.09.2020 05:00:00 18,1 15,0 17,3 13 7 21 11 WSW 1010,6 20 0 0,0
24.09.2020 04:00:00 18,1 14,8 17,1 14 8 21 12 WSW 1011,0 20 0 0,0
24.09.2020 03:00:00 18,2 14,3 16,5 11 6 19 10 SW 1011,3 20 0 0,0
24.09.2020 02:00:00 18,0 14,3 15,9 9 5 18 10 SW 1011,5 20 0 0,0
24.09.2020 01:00:00 17,5 14,0 15,9 5 3 12 7 SW 1011,7 20 0 0,0
24.09.2020 00:00:00 18,1 14,4 16,3 5 3 21 11 W 1011,6 20 0 0,0
23.09.2020 23:00:00 19,1 15,0 17,9 10 5 17 9 SW 1011,3 20 0 0,0
23.09.2020 22:00:00 19,6 15,7 17,9 3 2 16 9 S 1011,0 20 0 0,0
23.09.2020 21:00:00 20,5 15,9 19,2 8 4 19 10 WSW 1010,3 20 0 0,0
23.09.2020 20:00:00 21,9 16,0 20,8 11 6 22 12 WSW 1009,7 20 0 0,0
23.09.2020 19:00:00 24,3 17,1 24,4 11 6 26 14 WSW 1009,1 20 39 0,0
23.09.2020 18:00:00 25,2 16,9 26,7 14 8 29 16 WSW 1008,8 20 47 0,0
23.09.2020 17:00:00 26,0 16,8 28,5 14 8 30 16 SW 1008,6 20 60 0,0
23.09.2020 16:00:00 26,5 16,1 27,6 15 8 27 15 WSW 1008,8 20 28 0,0
23.09.2020 15:00:00 26,0 16,3 27,7 12 7 27 15 WSW 1009,4 20 38 0,0
23.09.2020 14:00:00 25,4 15,7 25,3 16 9 29 16 W 1010,1 20 41 0,0
23.09.2020 13:00:00 23,9 15,7 26,1 15 8 25 13 W 1010,5 20 43 0,0
23.09.2020 12:00:00 23,5 15,8 25,8 15 8 22 12 W 1011,0 20 44 0,0
23.09.2020 11:00:00 22,2 17,8 21,8 3 2 10 5 N 1011,3 20 46 0,0
23.09.2020 10:00:00 18,8 16,9 18,9 6 3 11 6 W 1011,3 20 20 0,0
23.09.2020 09:00:00 17,5 16,5 16,2 3 2 13 7 ENE 1011,2 20 10 0,0
23.09.2020 08:00:00 16,8 15,7 15,4 10 5 14 7 W 1011,2 20 11 0,0
23.09.2020 07:00:00 16,3 15,5 15,4 4 2 12 7 WSW 1011,3 20 0 0,0
23.09.2020 06:00:00 16,5 15,5 15,6 6 3 18 10 SSW 1011,4 20 0 0,0
23.09.2020 05:00:00 16,7 15,9 15,6 8 4 13 7 SSW 1011,6 20 0 0,0
23.09.2020 04:00:00 16,7 16,2 16,1 4 2 7 4 SW 1011,8 20 0 0,6
23.09.2020 03:00:00 16,5 15,9 16,1 3 1 5 3 ENE 1012,4 6 0 1,8
23.09.2020 02:00:00 16,7 16,1 16,1 0 0 5 3 N 1013,0 14 0 0,4
23.09.2020 01:00:00 16,7 15,9 15,4 2 1 8 4 WNW 1013,0 20 0 0,0
23.09.2020 00:00:00 16,5 15,5 15,6 4 2 7 4 SW 1013,5 20 0 0,0
22.09.2020 23:00:00 17,2 16,4 16,2 0 0 7 4 N 1013,6 20 0 0,0
22.09.2020 22:00:00 17,9 16,6 16,5 3 2 12 6 S 1013,3 20 0 0,0
22.09.2020 21:00:00 18,9 16,9 17,3 2 1 14 8 WNW 1013,1 20 0 0,0
22.09.2020 20:00:00 19,5 17,1 18,6 5 3 7 4 N 1013,0 20 0 0,0
22.09.2020 19:00:00 21,0 16,0 21,2 4 2 5 3 WSW 1012,7 20 23 0,0
22.09.2020 18:00:00 21,2 15,9 22,5 0 0 8 4 N 1013,0 20 0 0,0
22.09.2020 17:00:00 21,4 16,4 24,4 2 1 9 5 SW 1013,3 20 4 0,0
22.09.2020 16:00:00 21,2 16,6 23,9 3 2 10 5 W 1013,8 20 19 0,0
22.09.2020 15:00:00 20,1 15,9 20,0 4 2 18 10 WNW 1014,5 20 31 0,0
22.09.2020 14:00:00 18,1 15,4 17,3 4 2 8 4 W 1015,3 20 0 0,0
22.09.2020 13:00:00 17,2 15,4 17,1 5 3 25 13 WNW 1015,9 20 0 0,4
22.09.2020 12:00:00 17,7 16,6 16,6 13 7 34 18 NNW 1015,4 19 0 1,8
22.09.2020 11:00:00 18,6 17,9 19,3 0 0 6 4 N 1015,1 13 0 0,0
22.09.2020 10:00:00 18,2 17,7 18,1 2 1 13 7 NNE 1015,0 9 0 0,0
22.09.2020 09:00:00 17,7 17,4 17,4 5 3 23 12 NNW 1014,6 1,9 0 0,0
22.09.2020 08:00:00 17,5 17,2 17,3 0 0 7 4 N 1014,5 3,5 0 0,0
22.09.2020 07:00:00 17,4 17,1 17,0 5 3 9 5 WNW 1014,8 11 0 0,0
22.09.2020 06:00:00 17,1 16,8 17,0 6 4 8 5 NNW 1014,7 12 0 0,0
22.09.2020 05:00:00 17,6 17,3 17,5 8 4 9 5 NNW 1014,9 2,1 0 0,0
22.09.2020 04:00:00 17,9 17,7 17,8 2 1 4 2 NW 1015,0 0,2 0 0,0
22.09.2020 03:00:00 17,8 17,5 17,5 0 0 5 3 N 1015,5 0,3 0 0,0
22.09.2020 02:00:00 17,7 17,4 17,7 3 1 6 3 NNW 1015,9 0,5 0 0,0
22.09.2020 01:00:00 17,9 17,6 17,9 4 2 5 3 NE 1015,7 0,1 0 0,0
22.09.2020 00:00:00 18,0 17,7 17,8 2 1 5 3 WSW 1016,2 0,1 0 0,0
21.09.2020 23:00:00 18,4 17,9 17,2 0 0 10 5 N 1016,1 0,2 0 0,0
21.09.2020 22:00:00 18,6 17,8 17,3 3 1 4 2 NW 1016,3 12 0 0,0
21.09.2020 21:00:00 19,1 18,1 18,0 2 1 4 2 NW 1016,1 14 0 0,0
21.09.2020 20:00:00 19,7 18,4 18,3 0 0 5 3 N 1015,5 15 0 0,0
21.09.2020 19:00:00 21,2 18,2 21,7 0 0 6 3 N 1015,1 20 24 0,0
21.09.2020 18:00:00 20,7 18,5 20,4 4 2 8 4 NNE 1015,3 20 0 0,0
21.09.2020 17:00:00 19,7 18,5 19,1 5 3 13 7 NW 1015,5 20 0 0,0
21.09.2020 16:00:00 19,7 18,7 18,2 9 5 41 22 NNE 1015,7 19 0 16,3
21.09.2020 15:00:00 24,0 17,7 24,5 14 8 29 16 ESE 1015,2 20 8 0,0
21.09.2020 14:00:00 25,9 16,7 28,0 10 5 15 8 E 1014,9 19 21 0,0
21.09.2020 13:00:00 26,7 17,5 31,5 3 2 10 5 WSW 1015,1 20 48 0,0
21.09.2020 12:00:00 25,4 18,1 27,5 0 0 11 6 N 1015,7 20 60 0,0
21.09.2020 11:00:00 21,3 18,5 21,7 2 1 5 3 NE 1016,1 20 29 0,0
21.09.2020 10:00:00 18,8 17,8 18,1 2 1 5 3 ENE 1016,0 15 31 0,0
21.09.2020 09:00:00 17,2 16,9 16,6 2 1 6 3 E 1016,0 0,5 0 0,0
21.09.2020 08:00:00 16,9 16,6 16,7 3 2 6 4 SE 1015,6 0,2 0 0,0
21.09.2020 07:00:00 17,2 16,9 16,1 2 1 4 2 SSW 1015,0 0,9 0 0,0
21.09.2020 06:00:00 17,3 16,8 16,4 2 1 8 4 NE 1015,1 5 0 0,0
21.09.2020 05:00:00 17,3 16,8 16,1 0 0 3 2 N 1015,1 5 0 0,0
21.09.2020 04:00:00 17,7 17,2 16,7 3 2 8 4 ESE 1015,1 7 0 0,0
21.09.2020 03:00:00 18,5 18,0 17,5 4 2 9 5 W 1015,2 8 0 0,0
21.09.2020 02:00:00 18,6 17,9 17,9 4 2 8 4 ESE 1015,3 10 0 0,0
21.09.2020 01:00:00 19,3 18,5 18,7 0 0 6 4 N 1015,4 16 0 0,0
21.09.2020 00:00:00 19,3 18,5 18,6 2 1 9 5 SSW 1015,4 15 0 0,0
20.09.2020 23:00:00 20,1 19,1 19,1 3 2 11 6 NW 1015,1 17 0 0,0
20.09.2020 22:00:00 20,1 19,3 19,3 5 3 8 4 NW 1015,0 13 0 0,0
20.09.2020 21:00:00 20,1 18,8 19,3 4 2 17 9 NNE 1014,7 14 0 2,2
20.09.2020 20:00:00 21,4 18,0 21,0 13 7 21 12 NNE 1014,2 20 12 0,0
20.09.2020 19:00:00 23,0 19,4 22,1 11 6 22 12 E 1013,3 20 16 0,0
20.09.2020 18:00:00 23,3 19,0 22,1 4 2 16 9 ESE 1013,2 20 0 0,0
20.09.2020 17:00:00 24,1 18,3 24,4 13 7 26 14 E 1012,9 20 1 0,0
20.09.2020 16:00:00 24,8 18,3 26,3 15 8 26 14 E 1013,1 20 29 0,0
20.09.2020 15:00:00 24,4 19,5 23,1 17 9 26 14 E 1013,5 20 54 0,0
20.09.2020 14:00:00 21,4 19,1 20,1 11 6 20 11 ENE 1014,0 18 0 2,2
20.09.2020 13:00:00 22,9 18,4 21,5 11 6 26 14 E 1014,7 7 0 0,0
20.09.2020 12:00:00 24,0 18,9 25,3 15 8 31 17 E 1014,3 20 14 0,0
20.09.2020 11:00:00 23,5 18,6 24,9 8 4 13 7 ENE 1014,6 20 60 0,0
20.09.2020 10:00:00 20,9 18,1 19,7 2 1 5 3 E 1014,4 18 39 0,0
20.09.2020 09:00:00 18,7 17,5 16,9 0 0 5 3 N 1014,4 13 14 0,0
20.09.2020 08:00:00 17,4 16,6 15,9 3 1 8 4 SW 1014,2 8 0 0,0
20.09.2020 07:00:00 17,2 16,2 16,0 5 3 7 4 NNE 1014,1 10 0 0,0
20.09.2020 06:00:00 17,5 16,5 16,1 5 3 7 4 W 1014,4 7 0 0,0
20.09.2020 05:00:00 18,0 16,5 16,6 6 4 10 6 NNE 1014,1 18 0 0,0
20.09.2020 04:00:00 18,6 17,1 17,2 4 2 14 8 NE 1014,3 14 0 0,0
20.09.2020 03:00:00 19,0 17,8 18,0 4 2 29 16 NE 1014,3 13 0 3,7
20.09.2020 02:00:00 19,4 17,9 18,4 11 6 29 16 WNW 1016,0 1,3 0 17,1
20.09.2020 01:00:00 22,3 19,1 20,3 17 9 29 16 ENE 1013,9 13 0 0,0
20.09.2020 00:00:00 22,1 19,5 20,4 13 7 28 15 ENE 1014,7 15 0 0,2
19.09.2020 23:00:00 23,2 18,7 22,7 15 8 26 14 E 1015,0 20 0 0,0
19.09.2020 22:00:00 23,3 18,6 22,5 13 7 25 14 ENE 1015,3 20 0 0,0
19.09.2020 21:00:00 23,3 19,2 22,6 14 8 26 14 E 1014,7 20 0 0,0
19.09.2020 20:00:00 23,8 18,9 23,2 14 8 36 19 E 1014,8 20 11 0,0
19.09.2020 19:00:00 25,4 18,1 25,9 21 11 39 21 ESE 1015,0 20 27 0,0
19.09.2020 18:00:00 27,2 15,6 28,1 22 12 41 22 E 1014,2 20 26 0,0
19.09.2020 17:00:00 27,2 17,7 28,3 21 11 33 18 E 1015,2 20 27 0,0
19.09.2020 16:00:00 27,4 17,3 29,2 23 12 38 21 SE 1015,2 20 15 0,0
19.09.2020 15:00:00 29,3 15,1 31,8 22 12 39 21 ESE 1015,4 20 53 0,0
19.09.2020 14:00:00 28,7 14,9 31,5 22 12 40 22 SE 1016,2 20 42 0,0
19.09.2020 13:00:00 29,4 14,8 29,2 22 12 37 20 E 1016,4 20 25 0,0
19.09.2020 12:00:00 27,4 15,4 28,7 13 7 21 11 ESE 1017,2 20 0 0,0
19.09.2020 11:00:00 27,0 15,4 25,8 9 5 17 9 NE 1017,6 20 31 0,0
19.09.2020 10:00:00 23,0 16,5 23,2 0 0 7 4 N 1017,8 20 14 0,0
19.09.2020 09:00:00 20,2 16,8 18,7 2 1 6 3 E 1017,8 20 37 0,0
19.09.2020 08:00:00 18,2 16,7 15,8 3 2 6 3 W 1018,1 11 21 0,0
19.09.2020 07:00:00 17,7 16,2 15,9 3 2 6 3 NE 1017,6 11 0 0,0
19.09.2020 06:00:00 19,3 16,7 17,4 5 3 14 7 WSW 1017,5 18 0 0,0
19.09.2020 05:00:00 19,6 17,2 18,3 8 4 12 7 SW 1017,5 15 0 0,2
19.09.2020 04:00:00 20,8 16,2 19,5 3 2 10 5 SSW 1018,3 20 0 0,0

tt = Température de l'air
td = dewpoint
tt 5cm = Température de l'air 5cm
ff = Vitesse du vent
fx = gusts
dd = Direction du vent
ppp = reduced air pressure
vv = visibility
sd = Ensoleillement
rr = Quantités de précipitations

stations d'obs. à proximité